Regional Weather Roundup
Issued by NWS

Home | Current Version | Previous Version | Graphics & Text | Print | Product List | Glossary Off
Versions: 1 2 3 4 5 6 7 8 9 10 11 12 13 14 15 16 17 18 19 20 21 22 23 24 25 26 27 28 29 30 31 32 33 34 35 36 37 38 39 40 41 42 43 44 45 46 47 48 49 50

000
ASUS43 KMKX 031000
RWRWI

WISCONSIN REGIONAL WEATHER ROUNDUP
NATIONAL WEATHER SERVICE MILWAUKEE/SULLIVAN WI
500 AM CDT FRI JUL 03 2015

NOTE: "FAIR" INDICATES FEW OR NO CLOUDS BELOW 12,000 FEET WITH NO
SIGNIFICANT WEATHER AND/OR OBSTRUCTIONS TO VISIBILITY.

WIZ001-002-006>008-014>016-023>028-031100-
NORTHWEST WISCONSIN

CITY           SKY/WX    TMP DP  RH WIND       PRES   REMARKS
SUPERIOR ARPT  CLOUDY    60  56  89 SW7       29.91F
ASHLAND        CLOUDY    61  56  83 SW7       29.93R
HAYWARD        CLEAR     51  48  89 CALM      29.97S
SIREN          CLEAR     60  55  81 SW8       29.96S
CUMBERLAND     CLEAR     52  50  93 S5        29.98F
RICE LAKE      CLEAR     53  52  95 CALM      30.00S FOG
CHETEK         CLEAR     53  53 100 CALM      29.99S
LADYSMITH      CLEAR     53  51  94 CALM      30.00F
EAU CLAIRE     PTCLDY    55  54  94 CALM      29.98S FOG
MENOMONIE      CLEAR     55  55  98 CALM      30.00R
NEW RICHMOND   CLEAR     54  53  98 CALM      29.99S
OSCEOLA        CLEAR     55  55  99 CALM      30.01S
$$

WIZ003>005-009-010-017-018-031100-
NORTH CENTRAL WISCONSIN

CITY           SKY/WX    TMP DP  RH WIND       PRES   REMARKS
MANITOWISH WTR CLEAR     55  53  94 SW5       29.98S
ARBOR VITAE    CLEAR     55  52  88 SW5       29.99S
WOODRUFF       CLEAR     55  52  88 SW5       29.99S
RHINELANDER    CLEAR     56  50  80 SW9       30.00S
EAGLE RIVER    CLEAR     54  50  87 CALM      29.98F
LAND O LAKES   CLEAR     51  51 100 CALM      29.98F FOG
PHILLIPS       CLEAR     54  50  87 SW5       29.99S
TOMAHAWK       CLEAR     47  45  95 CALM      30.01S
MEDFORD        CLEAR     53  49  85 S3        30.00F
MERRILL        CLEAR     45  45 100 CALM      30.01S
$$

WIZ029-030-035-036-043>047-031100-
CENTRAL WISCONSIN

CITY           SKY/WX    TMP DP  RH WIND       PRES   REMARKS
WAUSAU         CLEAR     52  49  89 E3        30.00R
MOSINEE        CLEAR     52  50  93 CALM      30.02R
MARSHFIELD     CLEAR     54  48  80 CALM      30.01S
STEVENS POINT  CLEAR     45  44  95 CALM      30.02R
WAUPACA        PTCLDY    50  49  97 CALM      30.01R FOG
WAUTOMA        NOT AVBL
WISC RAPIDS    CLEAR     50  46  86 CALM      30.02S
CAMP DOUGLAS   PTCLDY    45  45 100 SE2       30.00S
$$

WIZ011>013-019>022-031-037>040-048>050-031100-
NORTHEAST WISCONSIN

CITY           SKY/WX    TMP DP  RH WIND       PRES   REMARKS
ANTIGO         CLEAR     48  47  96 CALM      30.02R
SHAWANO        CLEAR     51  49  92 CALM      30.00S
OCONTO         CLEAR     47  47 100 CALM      29.99S
STURGEON BAY   CLEAR     54  43  66 SW3       30.01S
GREEN BAY      CLEAR     51  48  89 CALM      30.00S
MANITOWOC      NOT AVBL
APPLETON       PTCLDY    52  48  87 W6        30.01R
CLINTONVILLE   CLEAR     48  46  93 CALM      30.01R
OSHKOSH        PTCLDY    53  45  74 CALM      30.00R
$$

WIZ032>034-041-042-053>061-031100-
SOUTHWEST WISCONSIN

CITY           SKY/WX    TMP DP  RH WIND       PRES   REMARKS
LA CROSSE      PTCLDY    55  53  93 E5        30.00R
SPARTA         PTCLDY    45  44  96 CALM      30.02R
VIROQUA        PTCLDY    54  52  93 CALM      30.01S
BOSCOBEL       FOG       55  54  96 CALM      30.01R VSB 1/4
PRAIRIE DU CHI PTCLDY    53  52  95 CALM      30.00S FOG
PLATTEVILLE    PTCLDY    54  51  91 E7        30.00S
$$

WIZ056-057-062-063-064-067-068-031100-
SOUTH CENTRAL WISCONSIN

CITY           SKY/WX    TMP DP  RH WIND       PRES   REMARKS
REEDSBURG      PTCLDY    50  50  99 CALM      30.00R
BARABOO/DELLS  PTCLDY    50  47  90 CALM      30.00S
LONE ROCK      CLOUDY    50  48  93 CALM      30.01S FOG
MINERAL POINT  PTCLDY    54  50  87 E3        30.00S
MADISON        PTCLDY    50  47  89 CALM      30.00R
MIDDLETON      PTCLDY    51  50  97 CALM      30.00S
WATERTOWN      PTCLDY    49  49 100 CALM      29.99S
MONROE         FAIR      54  50  87 NE3       29.98F
JANESVILLE     MOCLDY    52  50  93 CALM      29.98S
$$

WIZ051-052-058>065-066-070>072-031100-
SOUTHEAST WISCONSIN

CITY           SKY/WX    TMP DP  RH WIND       PRES   REMARKS
MILWAUKEE      PTCLDY    55  47  74 NW3       30.00R
WAUKESHA       PTCLDY    48  43  81 CALM      30.00S
MILWAUKEE/TIMM PTCLDY    50  43  76 CALM      30.00S
RACINE         MOCLDY    54  48  80 CALM      30.00S
BURLINGTON     MOCLDY    46  46  97 CALM      29.99S
KENOSHA        MOCLDY    51  47  86 N3        29.99R
FOND DU LAC    PTCLDY    50  47  89 CALM      30.01R
SHEBOYGAN      PTCLDY    49  45  86 CALM      30.00R
WEST BEND      PTCLDY    46  45  93 CALM      30.00S
JUNEAU         PTCLDY    49  47  93 N3        30.01S
$$

LSZ147-162-031100-
LAKE SUPERIOR

STATION/POSITION TIME  TEMP    WIND        PRES    WAVE
                       AIR SEA DIR/SP/G            HT/PER
                 (UTC) (F)     (DEG/KT/KT) (MB)    (FT/S)
W MID LAKE BUOY  0850   47 38  210/ 12/ 14 1011.4F   1/ 3
DEVILS ISLAND    0900   64     230/ 13/ 15 1011.9F
SAXON HARBOR     0900   62     200/  3/  6 1012.9F
$$

LMZ867-665-643>646-031100-
LAKE MICHIGAN

STATION/POSITION TIME  TEMP    WIND        PRES    WAVE
                       AIR SEA DIR/SP/G            HT/PER
                 (UTC) (F)     (DEG/KT/KT) (MB)    (FT/S)
CHAMBERS ISLAND  0900   62     200/  2/  6 1015.2S
S GREEN BAY BUOY 0930   64 68  200/  8/ 10 1016.9R
N MID LAKE BUOY  0850   52 46  230/  8/  8 1015.4S   0
NORTHPORT PIER   0900   61     200/  3/  8 1015.6R
SISTER BAY       0814   62     210/ 10/ 12   N/A
ALGOMA LAKESHORE 0910          320/  5/  6   N/A
KEWAUNEE LAKESHO 0900   54     310/  5/  7 1014.8F
SHEBOYGAN LAKESH 0900   56     270/  2/  3 1015.8F
PORT WASHINGTON  0940   53     270/  3/  4 1016.6R
ATWATER BUOY     0900   58     320/  4/  4 1016.8S
MILWAUKEE LAKESH 0900   57     330/  4/  5   N/A
KENOSHA   LAKESH 0900   60      30/  6/  6 1015.2S
$$

TC  - TEMPERATURE IN CELSIUS
VSB - VISIBILITY IN STATUTE MILES
WCI - WIND CHILL INDEX
HX  - HEAT INDEX




USA.gov is the U.S. government's official web portal to all federal, state and local government web resources and services.